| time (UTC) | temp F | wind direction | speed MPH | gust MPH | rain 1hr in | rain 24hr in | rain mn in | humidity % | barometer mb |
| 20260507172010 | 86 | 237 | 1.0 | 3.0 | 0.00 | 0.00 | 0.00 | 16 | 1014.1 |
| 20260507171519 | 85 | 111 | 1.0 | 3.0 | 0.00 | 0.00 | 0.00 | 16 | 1014.2 |
| 20260507171009 | 86 | 165 | 1.0 | 3.0 | 0.00 | 0.00 | 0.00 | 17 | 1014.2 |
| 20260507170509 | 86 | 210 | 0.0 | 2.0 | 0.00 | 0.00 | 0.00 | 16 | 1014.3 |
| 20260507170025 | 86 | 157 | 0.0 | 2.0 | 0.00 | 0.00 | 0.00 | 17 | 1014.3 |
| 20260507165516 | 85 | 186 | 1.0 | 2.0 | 0.00 | 0.00 | 0.00 | 16 | 1014.3 |
| 20260507165007 | 84 | 182 | 0.0 | 2.0 | 0.00 | 0.00 | 0.00 | 17 | 1014.3 |
| 20260507164527 | 84 | 56 | 0.0 | 2.0 | 0.00 | 0.00 | 0.00 | 18 | 1014.3 |
| 20260507164009 | 84 | 345 | 0.0 | 2.0 | 0.00 | 0.00 | 0.00 | 18 | 1014.5 |
| 20260507163511 | 83 | 173 | 0.0 | 2.0 | 0.00 | 0.00 | 0.00 | 19 | 1014.5 |
| 20260507163007 | 83 | 304 | 0.0 | 2.0 | 0.00 | 0.00 | 0.00 | 20 | 1014.4 |
| 20260507162503 | 83 | 265 | 0.0 | 1.0 | 0.00 | 0.00 | 0.00 | 22 | 1014.4 |
| 20260507162008 | 83 | 169 | 0.0 | 1.0 | 0.00 | 0.00 | 0.00 | 21 | 1014.5 |
| 20260507161516 | 82 | 236 | 0.0 | 2.0 | 0.00 | 0.00 | 0.00 | 23 | 1014.6 |
| 20260507161010 | 82 | 155 | 1.0 | 3.0 | 0.00 | 0.00 | 0.00 | 23 | 1014.6 |
| 20260507160507 | 81 | 184 | 0.0 | 3.0 | 0.00 | 0.00 | 0.00 | 24 | 1014.7 |
| 20260507160016 | 81 | 179 | 1.0 | 3.0 | 0.00 | 0.00 | 0.00 | 23 | 1014.6 |
| 20260507155510 | 81 | 188 | 0.0 | 2.0 | 0.00 | 0.00 | 0.00 | 24 | 1014.6 |
| 20260507155010 | 80 | 339 | 0.0 | 1.0 | 0.00 | 0.00 | 0.00 | 24 | 1014.7 |
| 20260507154524 | 80 | 188 | 0.0 | 1.0 | 0.00 | 0.00 | 0.00 | 24 | 1014.7 |
| 20260507154009 | 79 | 175 | 0.0 | 1.0 | 0.00 | 0.00 | 0.00 | 24 | 1014.7 |
| 20260507153511 | 79 | 200 | 0.0 | 1.0 | 0.00 | 0.00 | 0.00 | 25 | 1014.7 |
| 20260507153027 | 79 | 181 | 0.0 | 2.0 | 0.00 | 0.00 | 0.00 | 25 | 1014.7 |
| 20260507152508 | 79 | 191 | 0.0 | 2.0 | 0.00 | 0.00 | 0.00 | 25 | 1014.7 |
| 20260507152011 | 78 | 224 | 0.0 | 1.0 | 0.00 | 0.00 | 0.00 | 25 | 1014.8 |
| 20260507151525 | 77 | 210 | 0.0 | 1.0 | 0.00 | 0.00 | 0.00 | 25 | 1014.7 |
| 20260507151007 | 78 | 214 | 0.0 | 1.0 | 0.00 | 0.00 | 0.00 | 25 | 1014.7 |
| 20260507150506 | 77 | 215 | 0.0 | 1.0 | 0.00 | 0.00 | 0.00 | 25 | 1014.7 |
| 20260507150017 | 77 | 214 | 0.0 | 1.0 | 0.00 | 0.00 | 0.00 | 26 | 1014.8 |
| 20260507145507 | 77 | 214 | 0.0 | 1.0 | 0.00 | 0.00 | 0.00 | 26 | 1014.7 |
| 20260507145006 | 76 | 207 | 0.0 | 1.0 | 0.00 | 0.00 | 0.00 | 26 | 1014.8 |
| 20260507144512 | 76 | 208 | 0.0 | 1.0 | 0.00 | 0.00 | 0.00 | 26 | 1014.8 |
| 20260507144006 | 75 | 173 | 0.0 | 0.0 | 0.00 | 0.00 | 0.00 | 26 | 1014.8 |
| 20260507143504 | 74 | 173 | 0.0 | 1.0 | 0.00 | 0.00 | 0.00 | 27 | 1014.8 |
| 20260507143007 | 73 | 174 | 0.0 | 1.0 | 0.00 | 0.00 | 0.00 | 28 | 1014.7 |
| 20260507142502 | 73 | 195 | 0.0 | 1.0 | 0.00 | 0.00 | 0.00 | 28 | 1014.7 |
| 20260507142005 | 72 | 113 | 0.0 | 1.0 | 0.00 | 0.00 | 0.00 | 29 | 1014.7 |
| 20260507141510 | 70 | 33 | 0.0 | 1.0 | 0.00 | 0.00 | 0.00 | 30 | 1014.7 |
| 20260507141008 | 69 | 55 | 0.0 | 1.0 | 0.00 | 0.00 | 0.00 | 31 | 1014.6 |
| 20260507140505 | 69 | 144 | 0.0 | 1.0 | 0.00 | 0.00 | 0.00 | 31 | 1014.6 |
| 20260507140026 | 68 | 37 | 0.0 | 1.0 | 0.00 | 0.00 | 0.00 | 31 | 1014.6 |
| 20260507135505 | 68 | 41 | 0.0 | 1.0 | 0.00 | 0.00 | 0.00 | 31 | 1014.6 |
| 20260507135009 | 68 | 102 | 0.0 | 1.0 | 0.00 | 0.00 | 0.00 | 31 | 1014.5 |
| 20260507134510 | 67 | 146 | 0.0 | 3.0 | 0.00 | 0.00 | 0.00 | 32 | 1014.4 |
| 20260507134006 | 67 | 176 | 0.0 | 3.0 | 0.00 | 0.00 | 0.00 | 32 | 1014.5 |
| 20260507133506 | 66 | 62 | 0.0 | 1.0 | 0.00 | 0.00 | 0.00 | 33 | 1014.4 |
| 20260507133012 | 66 | 109 | 0.0 | 1.0 | 0.00 | 0.00 | 0.00 | 34 | 1014.4 |
| 20260507132504 | 66 | 129 | 0.0 | 1.0 | 0.00 | 0.00 | 0.00 | 33 | 1014.4 |
| 20260507132005 | 66 | 150 | 0.0 | 1.0 | 0.00 | 0.00 | 0.00 | 34 | 1014.4 |
| 20260507131513 | 66 | 147 | 0.0 | 2.0 | 0.00 | 0.00 | 0.00 | 33 | 1014.3 |
| 20260507131007 | 66 | 146 | 0.0 | 2.0 | 0.00 | 0.00 | 0.00 | 33 | 1014.2 |
| 20260507130502 | 66 | 108 | 0.0 | 1.0 | 0.00 | 0.00 | 0.00 | 34 | 1014.2 |
| 20260507130008 | 66 | 123 | 0.0 | 1.0 | 0.00 | 0.00 | 0.00 | 35 | 1014.2 |
| 20260507125507 | 67 | 127 | 0.0 | 1.0 | 0.00 | 0.00 | 0.00 | 36 | 1014.2 |
| 20260507125005 | 68 | 155 | 0.0 | 1.0 | 0.00 | 0.00 | 0.00 | 32 | 1014.2 |
| 20260507124514 | 69 | 205 | 0.0 | 1.0 | 0.00 | 0.00 | 0.00 | 29 | 1014.1 |
| 20260507124006 | 70 | 266 | 0.0 | 1.0 | 0.00 | 0.00 | 0.00 | 29 | 1014.1 |
| 20260507123507 | 71 | 266 | 0.0 | 1.0 | 0.00 | 0.00 | 0.00 | 27 | 1014.0 |
| 20260507123013 | 71 | 266 | 0.0 | 2.0 | 0.00 | 0.00 | 0.00 | 26 | 1014.0 |
| 20260507122508 | 71 | 310 | 0.0 | 2.0 | 0.00 | 0.00 | 0.00 | 26 | 1014.0 |
| 20260507122006 | 71 | 286 | 0.0 | 3.0 | 0.00 | 0.00 | 0.00 | 27 | 1013.9 |
| 20260507121510 | 71 | 284 | 0.0 | 3.0 | 0.00 | 0.00 | 0.00 | 27 | 1013.9 |
| 20260507121008 | 70 | 305 | 0.0 | 3.0 | 0.00 | 0.00 | 0.00 | 27 | 1013.9 |
| 20260507120509 | 70 | 202 | 0.0 | 2.0 | 0.00 | 0.00 | 0.00 | 27 | 1013.9 |
| 20260507120026 | 70 | 259 | 0.0 | 3.0 | 0.00 | 0.00 | 0.00 | 28 | 1013.9 |
| 20260507115503 | 69 | 299 | 0.0 | 6.0 | 0.00 | 0.00 | 0.00 | 28 | 1014.0 |
| 20260507115006 | 68 | 351 | 1.0 | 6.0 | 0.00 | 0.00 | 0.00 | 30 | 1014.0 |
| 20260507114512 | 66 | 303 | 0.0 | 1.0 | 0.00 | 0.00 | 0.00 | 31 | 1014.0 |
| 20260507114013 | 66 | 211 | 0.0 | 1.0 | 0.00 | 0.00 | 0.00 | 32 | 1014.0 |
| 20260507113508 | 66 | 142 | 0.0 | 1.0 | 0.00 | 0.00 | 0.00 | 33 | 1014.1 |
| 20260507113026 | 66 | 142 | 0.0 | 1.0 | 0.00 | 0.00 | 0.00 | 32 | 1014.1 |
| 20260507112509 | 66 | 142 | 0.0 | 0.0 | 0.00 | 0.00 | 0.00 | 32 | 1014.1 |
| 20260507112011 | 67 | 142 | 0.0 | 0.0 | 0.00 | 0.00 | 0.00 | 30 | 1014.1 |
| 20260507111515 | 68 | 142 | 0.0 | 0.0 | 0.00 | 0.00 | 0.00 | 30 | 1014.0 |
| 20260507111010 | 68 | 142 | 0.0 | 0.0 | 0.00 | 0.00 | 0.00 | 28 | 1014.0 |
| 20260507110506 | 68 | 142 | 0.0 | 1.0 | 0.00 | 0.00 | 0.00 | 28 | 1014.1 |
| 20260507110012 | 68 | 142 | 0.0 | 1.0 | 0.00 | 0.00 | 0.00 | 28 | 1014.2 |
| 20260507105506 | 67 | 142 | 0.0 | 0.0 | 0.00 | 0.00 | 0.00 | 29 | 1014.2 |
| 20260507105004 | 67 | 142 | 0.0 | 0.0 | 0.00 | 0.00 | 0.00 | 29 | 1014.2 |
| 20260507104519 | 68 | 142 | 0.0 | 1.0 | 0.00 | 0.00 | 0.00 | 29 | 1014.3 |
| 20260507104006 | 67 | 142 | 0.0 | 1.0 | 0.00 | 0.00 | 0.00 | 29 | 1014.4 |
| 20260507103507 | 68 | 142 | 0.0 | 0.0 | 0.00 | 0.00 | 0.00 | 28 | 1014.3 |
| 20260507103011 | 68 | 142 | 0.0 | 0.0 | 0.00 | 0.00 | 0.00 | 29 | 1014.5 |
| 20260507102507 | 68 | 142 | 0.0 | 0.0 | 0.00 | 0.00 | 0.00 | 29 | 1014.5 |
| 20260507102010 | 68 | 142 | 0.0 | 0.0 | 0.00 | 0.00 | 0.00 | 30 | 1014.5 |
| 20260507101521 | 68 | 142 | 0.0 | 0.0 | 0.00 | 0.00 | 0.00 | 29 | 1014.6 |
| 20260507101011 | 68 | 142 | 0.0 | 1.0 | 0.00 | 0.00 | 0.00 | 29 | 1014.6 |
| 20260507100507 | 68 | 142 | 0.0 | 1.0 | 0.00 | 0.00 | 0.00 | 28 | 1014.7 |
| 20260507100028 | 68 | 142 | 0.0 | 1.0 | 0.00 | 0.00 | 0.00 | 28 | 1014.7 |
| 20260507095506 | 69 | 142 | 0.0 | 1.0 | 0.00 | 0.00 | 0.00 | 28 | 1014.7 |
| 20260507095007 | 69 | 142 | 0.0 | 1.0 | 0.00 | 0.00 | 0.00 | 28 | 1014.7 |
| 20260507094516 | 69 | 142 | 0.0 | 1.0 | 0.00 | 0.00 | 0.00 | 27 | 1014.7 |
| 20260507094007 | 70 | 142 | 0.0 | 1.0 | 0.00 | 0.00 | 0.00 | 27 | 1014.7 |
| 20260507093507 | 70 | 142 | 0.0 | 1.0 | 0.00 | 0.00 | 0.00 | 27 | 1014.7 |
| 20260507093014 | 70 | 142 | 0.0 | 1.0 | 0.00 | 0.00 | 0.00 | 27 | 1014.8 |
| 20260507092512 | 71 | 67 | 0.0 | 0.0 | 0.00 | 0.00 | 0.00 | 26 | 1014.8 |
| 20260507092007 | 71 | 63 | 0.0 | 1.0 | 0.00 | 0.00 | 0.00 | 25 | 1014.7 |
| 20260507091516 | 71 | 62 | 0.0 | 1.0 | 0.00 | 0.00 | 0.00 | 25 | 1014.7 |
| 20260507091011 | 71 | 35 | 0.0 | 2.0 | 0.00 | 0.00 | 0.00 | 25 | 1014.7 |
| 20260507090512 | 71 | 312 | 0.0 | 2.0 | 0.00 | 0.00 | 0.00 | 25 | 1014.7 |
| 20260507090015 | 71 | 295 | 0.0 | 2.0 | 0.00 | 0.00 | 0.00 | 25 | 1014.7 |
| 20260507085506 | 71 | 293 | 0.0 | 2.0 | 0.00 | 0.00 | 0.00 | 25 | 1014.8 |
| 20260507085009 | 71 | 306 | 0.0 | 1.0 | 0.00 | 0.00 | 0.00 | 26 | 1014.8 |
| 20260507084538 | 71 | 306 | 0.0 | 1.0 | 0.00 | 0.00 | 0.00 | 25 | 1014.8 |
| 20260507084007 | 72 | 281 | 0.0 | 2.0 | 0.00 | 0.00 | 0.00 | 25 | 1014.9 |
| 20260507083506 | 72 | 280 | 0.0 | 2.0 | 0.00 | 0.00 | 0.00 | 25 | 1014.9 |
| 20260507083023 | 72 | 323 | 0.0 | 2.0 | 0.00 | 0.00 | 0.00 | 25 | 1015.0 |
| 20260507082506 | 72 | 252 | 0.0 | 2.0 | 0.00 | 0.00 | 0.00 | 25 | 1015.0 |
| 20260507082007 | 72 | 354 | 0.0 | 2.0 | 0.00 | 0.00 | 0.00 | 25 | 1015.0 |
| 20260507081516 | 72 | 321 | 0.0 | 3.0 | 0.00 | 0.00 | 0.00 | 25 | 1015.1 |
| 20260507081015 | 72 | 335 | 0.0 | 3.0 | 0.00 | 0.00 | 0.00 | 25 | 1015.1 |
| 20260507080507 | 72 | 245 | 0.0 | 3.0 | 0.00 | 0.00 | 0.00 | 25 | 1015.0 |
| 20260507080015 | 72 | 328 | 0.0 | 3.0 | 0.00 | 0.00 | 0.00 | 25 | 1015.1 |
| 20260507075507 | 73 | 273 | 0.0 | 2.0 | 0.00 | 0.00 | 0.00 | 25 | 1015.1 |
| 20260507075012 | 73 | 333 | 0.0 | 2.0 | 0.00 | 0.00 | 0.00 | 25 | 1015.1 |
| 20260507074518 | 73 | 292 | 0.0 | 3.0 | 0.00 | 0.00 | 0.00 | 24 | 1015.1 |
| 20260507074008 | 73 | 329 | 0.0 | 3.0 | 0.00 | 0.00 | 0.00 | 24 | 1015.1 |
| 20260507073508 | 73 | 321 | 1.0 | 3.0 | 0.00 | 0.00 | 0.00 | 24 | 1015.1 |
| 20260507073020 | 73 | 251 | 0.0 | 2.0 | 0.00 | 0.00 | 0.00 | 24 | 1015.1 |
| 20260507072509 | 73 | 280 | 0.0 | 2.0 | 0.00 | 0.00 | 0.00 | 24 | 1015.1 |
| 20260507072007 | 73 | 314 | 0.0 | 2.0 | 0.00 | 0.00 | 0.00 | 24 | 1015.0 |
| 20260507071519 | 73 | 237 | 0.0 | 2.0 | 0.00 | 0.00 | 0.00 | 24 | 1015.0 |
| 20260507071009 | 73 | 245 | 0.0 | 2.0 | 0.00 | 0.00 | 0.00 | 24 | 1015.0 |
| 20260507070507 | 74 | 252 | 0.0 | 2.0 | 0.00 | 0.00 | 0.00 | 24 | 1015.0 |
| 20260507070023 | 74 | 324 | 0.0 | 2.0 | 0.00 | 0.00 | 0.00 | 24 | 1015.0 |
| 20260507065508 | 74 | 336 | 0.0 | 2.0 | 0.00 | 0.00 | 0.00 | 24 | 1015.0 |
| 20260507065008 | 74 | 295 | 0.0 | 4.0 | 0.00 | 0.00 | 0.00 | 24 | 1015.0 |
| 20260507064518 | 74 | 218 | 0.0 | 4.0 | 0.00 | 0.00 | 0.00 | 24 | 1015.1 |
| 20260507064007 | 74 | 307 | 1.0 | 2.0 | 0.00 | 0.00 | 0.00 | 24 | 1015.1 |
| 20260507063513 | 74 | 238 | 1.0 | 2.0 | 0.00 | 0.00 | 0.00 | 24 | 1015.1 |
| 20260507063019 | 74 | 291 | 0.0 | 2.0 | 0.00 | 0.00 | 0.00 | 24 | 1015.1 |
| 20260507062509 | 74 | 313 | 0.0 | 2.0 | 0.00 | 0.00 | 0.00 | 25 | 1015.1 |
| 20260507062010 | 74 | 248 | 0.0 | 1.0 | 0.00 | 0.00 | 0.00 | 25 | 1015.1 |
| 20260507061520 | 74 | 248 | 0.0 | 1.0 | 0.00 | 0.00 | 0.00 | 25 | 1015.0 |
| 20260507061012 | 74 | 252 | 0.0 | 1.0 | 0.00 | 0.00 | 0.00 | 25 | 1015.1 |
| 20260507060506 | 74 | 297 | 0.0 | 2.0 | 0.00 | 0.00 | 0.00 | 25 | 1015.1 |
| 20260507060032 | 74 | 311 | 0.0 | 2.0 | 0.00 | 0.00 | 0.00 | 25 | 1015.1 |
| 20260507055509 | 74 | 308 | 0.0 | 2.0 | 0.00 | 0.00 | 0.00 | 24 | 1015.1 |
| 20260507055005 | 75 | 310 | 0.0 | 1.0 | 0.00 | 0.00 | 0.00 | 24 | 1015.1 |
| 20260507054512 | 75 | 308 | 0.0 | 1.0 | 0.00 | 0.00 | 0.00 | 24 | 1015.0 |
| 20260507054006 | 75 | 320 | 0.0 | 1.0 | 0.00 | 0.00 | 0.00 | 24 | 1015.0 |
| 20260507053507 | 75 | 308 | 0.0 | 1.0 | 0.00 | 0.00 | 0.00 | 24 | 1015.1 |
| 20260507053020 | 75 | 322 | 0.0 | 1.0 | 0.00 | 0.00 | 0.00 | 24 | 1015.0 |
| 20260507052511 | 75 | 313 | 0.0 | 1.0 | 0.00 | 0.00 | 0.00 | 24 | 1015.1 |
| 20260507052004 | 75 | 314 | 0.0 | 1.0 | 0.00 | 0.00 | 0.00 | 24 | 1015.1 |
| 20260507051504 | 75 | 314 | 0.0 | 1.0 | 0.00 | 0.00 | 0.00 | 24 | 1015.1 |
| 20260507051008 | 75 | 314 | 0.0 | 0.0 | 0.00 | 0.00 | 0.00 | 24 | 1015.1 |
| 20260507050503 | 75 | 314 | 0.0 | 0.0 | 0.00 | 0.00 | 0.00 | 24 | 1015.1 |
| 20260507050020 | 75 | 314 | 0.0 | 1.0 | 0.00 | 0.00 | 0.00 | 24 | 1015.0 |
| 20260507045503 | 75 | 314 | 0.0 | 1.0 | 0.00 | 0.00 | 0.00 | 24 | 1015.0 |
| 20260507045004 | 75 | 314 | 0.0 | 1.0 | 0.00 | 0.00 | 0.00 | 24 | 1015.0 |
| 20260507044516 | 76 | 314 | 0.0 | 1.0 | 0.00 | 0.00 | 0.00 | 24 | 1015.0 |
| 20260507044010 | 76 | 338 | 0.0 | 1.0 | 0.00 | 0.00 | 0.00 | 24 | 1014.9 |
| 20260507043505 | 76 | 325 | 0.0 | 1.0 | 0.00 | 0.00 | 0.00 | 23 | 1014.9 |
| 20260507043014 | 76 | 338 | 0.0 | 1.0 | 0.00 | 0.00 | 0.00 | 23 | 1014.9 |
| 20260507042509 | 76 | 328 | 0.0 | 1.0 | 0.00 | 0.00 | 0.00 | 23 | 1014.9 |
| 20260507042007 | 76 | 328 | 0.0 | 1.0 | 0.00 | 0.00 | 0.00 | 23 | 1014.7 |
| 20260507041523 | 76 | 328 | 0.0 | 1.0 | 0.00 | 0.00 | 0.00 | 23 | 1014.7 |
| 20260507041010 | 77 | 328 | 0.0 | 1.0 | 0.00 | 0.00 | 0.00 | 23 | 1014.6 |
| 20260507040504 | 76 | 328 | 0.0 | 2.0 | 0.00 | 0.00 | 0.00 | 23 | 1014.6 |
| 20260507040005 | 76 | 327 | 0.0 | 2.0 | 0.00 | 0.00 | 0.00 | 23 | 1014.5 |
| 20260507035504 | 76 | 328 | 0.0 | 2.0 | 0.00 | 0.00 | 0.00 | 24 | 1014.4 |
| 20260507035003 | 76 | 311 | 0.0 | 0.0 | 0.00 | 0.00 | 0.00 | 25 | 1014.3 |
| 20260507034510 | 76 | 311 | 0.0 | 2.0 | 0.00 | 0.00 | 0.00 | 24 | 1014.3 |
| 20260507034005 | 76 | 311 | 0.0 | 2.0 | 0.00 | 0.00 | 0.00 | 24 | 1014.2 |
| 20260507033504 | 76 | 286 | 0.0 | 1.0 | 0.00 | 0.00 | 0.00 | 24 | 1014.2 |
| 20260507033016 | 76 | 285 | 0.0 | 1.0 | 0.00 | 0.00 | 0.00 | 24 | 1014.2 |
| 20260507032507 | 77 | 285 | 0.0 | 1.0 | 0.00 | 0.00 | 0.00 | 24 | 1014.1 |
| 20260507032007 | 77 | 282 | 0.0 | 1.0 | 0.00 | 0.00 | 0.00 | 24 | 1014.0 |
| 20260507031518 | 77 | 282 | 0.0 | 1.0 | 0.00 | 0.00 | 0.00 | 24 | 1013.9 |
| 20260507031007 | 77 | 262 | 0.0 | 1.0 | 0.00 | 0.00 | 0.00 | 24 | 1013.9 |
| 20260507030510 | 77 | 260 | 0.0 | 1.0 | 0.00 | 0.00 | 0.00 | 24 | 1013.8 |
| 20260507030022 | 77 | 261 | 0.0 | 1.0 | 0.00 | 0.00 | 0.00 | 24 | 1013.7 |
| 20260507025509 | 78 | 255 | 0.0 | 1.0 | 0.00 | 0.00 | 0.00 | 24 | 1013.6 |
| 20260507025015 | 78 | 288 | 0.0 | 1.0 | 0.00 | 0.00 | 0.00 | 23 | 1013.7 |
| 20260507024504 | 78 | 304 | 0.0 | 0.0 | 0.00 | 0.00 | 0.00 | 23 | 1013.6 |
| 20260507024004 | 79 | 304 | 0.0 | 1.0 | 0.00 | 0.00 | 0.00 | 23 | 1013.6 |
| 20260507023505 | 79 | 304 | 0.0 | 1.0 | 0.00 | 0.00 | 0.00 | 23 | 1013.4 |
| 20260507023010 | 79 | 307 | 0.0 | 1.0 | 0.00 | 0.00 | 0.00 | 23 | 1013.3 |
| 20260507022505 | 80 | 257 | 0.0 | 4.0 | 0.00 | 0.00 | 0.00 | 23 | 1013.3 |
| 20260507022005 | 80 | 241 | 0.0 | 4.0 | 0.00 | 0.00 | 0.00 | 22 | 1013.3 |
| 20260507021524 | 80 | 244 | 1.0 | 5.0 | 0.00 | 0.00 | 0.00 | 22 | 1013.3 |
| 20260507021007 | 80 | 239 | 1.0 | 5.0 | 0.00 | 0.00 | 0.00 | 22 | 1013.3 |
| 20260507020508 | 81 | 257 | 2.0 | 5.0 | 0.00 | 0.00 | 0.00 | 21 | 1013.3 |
| 20260507020023 | 81 | 266 | 1.0 | 4.0 | 0.00 | 0.00 | 0.00 | 21 | 1013.2 |
| 20260507015508 | 82 | 271 | 0.0 | 2.0 | 0.00 | 0.00 | 0.00 | 21 | 1013.2 |
| 20260507015009 | 83 | 238 | 0.0 | 2.0 | 0.00 | 0.00 | 0.00 | 20 | 1013.1 |
| 20260507014524 | 84 | 262 | 1.0 | 2.0 | 0.00 | 0.00 | 0.00 | 20 | 1013.1 |
| 20260507014015 | 84 | 212 | 0.0 | 2.0 | 0.00 | 0.00 | 0.00 | 20 | 1013.2 |
| 20260507013508 | 84 | 238 | 0.0 | 4.0 | 0.00 | 0.00 | 0.00 | 20 | 1013.1 |
| 20260507013009 | 84 | 270 | 1.0 | 6.0 | 0.00 | 0.00 | 0.00 | 20 | 1013.1 |
| 20260507012505 | 84 | 252 | 1.0 | 6.0 | 0.00 | 0.00 | 0.00 | 20 | 1013.0 |
| 20260507012007 | 85 | 255 | 3.0 | 6.0 | 0.00 | 0.00 | 0.00 | 19 | 1013.0 |
| 20260507011516 | 85 | 259 | 1.0 | 5.0 | 0.00 | 0.00 | 0.00 | 19 | 1013.0 |
| 20260507011004 | 85 | 239 | 3.0 | 8.0 | 0.00 | 0.00 | 0.00 | 20 | 1013.0 |
| 20260507010512 | 85 | 203 | 2.0 | 8.0 | 0.00 | 0.00 | 0.00 | 20 | 1012.9 |
| 20260507010028 | 86 | 252 | 1.0 | 6.0 | 0.00 | 0.00 | 0.00 | 20 | 1013.0 |
| 20260507005508 | 86 | 243 | 2.0 | 8.0 | 0.00 | 0.00 | 0.00 | 19 | 1013.0 |
| 20260507005014 | 85 | 257 | 1.0 | 8.0 | 0.00 | 0.00 | 0.00 | 19 | 1013.0 |
| 20260507004522 | 86 | 254 | 1.0 | 5.0 | 0.00 | 0.00 | 0.00 | 19 | 1012.9 |
| 20260507004011 | 86 | 246 | 1.0 | 5.0 | 0.00 | 0.00 | 0.00 | 19 | 1013.0 |
| 20260507003511 | 86 | 259 | 1.0 | 3.0 | 0.00 | 0.00 | 0.00 | 19 | 1013.0 |
| 20260507003023 | 86 | 207 | 1.0 | 3.0 | 0.00 | 0.00 | 0.00 | 18 | 1013.0 |
| 20260507002513 | 86 | 249 | 0.0 | 6.0 | 0.00 | 0.00 | 0.00 | 18 | 1013.0 |
| 20260507002014 | 86 | 236 | 1.0 | 6.0 | 0.00 | 0.00 | 0.00 | 19 | 1013.0 |
| 20260507001508 | 87 | 248 | 1.0 | 5.0 | 0.00 | 0.00 | 0.00 | 18 | 1013.0 |
| 20260507001007 | 86 | 297 | 1.0 | 3.0 | 0.00 | 0.00 | 0.00 | 19 | 1013.0 |
| 20260507000503 | 86 | 324 | 1.0 | 7.0 | 0.00 | 0.00 | 0.00 | 18 | 1012.9 |
| 20260507000011 | 87 | 244 | 0.0 | 7.0 | 0.00 | 0.00 | 0.00 | 18 | 1013.0 |
| 20260506235504 | 87 | 200 | 2.0 | 5.0 | 0.00 | 0.00 | 0.00 | 18 | 1012.9 |
| 20260506235011 | 87 | 290 | 2.0 | 3.0 | 0.00 | 0.00 | 0.00 | 18 | 1013.0 |
| 20260506234516 | 86 | 239 | 0.0 | 2.0 | 0.00 | 0.00 | 0.00 | 18 | 1013.0 |
| 20260506234009 | 86 | 231 | 1.0 | 2.0 | 0.00 | 0.00 | 0.00 | 19 | 1013.0 |
| 20260506233508 | 85 | 255 | 0.0 | 7.0 | 0.00 | 0.00 | 0.00 | 19 | 1013.0 |
| 20260506233020 | 85 | 338 | 1.0 | 9.0 | 0.00 | 0.00 | 0.00 | 19 | 1013.1 |
| 20260506232508 | 86 | 269 | 2.0 | 9.0 | 0.00 | 0.00 | 0.00 | 19 | 1013.2 |
| 20260506232010 | 86 | 257 | 3.0 | 8.0 | 0.00 | 0.00 | 0.00 | 19 | 1013.2 |
| 20260506231526 | 87 | 154 | 1.0 | 3.0 | 0.00 | 0.00 | 0.00 | 18 | 1013.2 |
| 20260506231011 | 89 | 245 | 1.0 | 3.0 | 0.00 | 0.00 | 0.00 | 18 | 1013.3 |
| 20260506230511 | 87 | 209 | 0.0 | 6.0 | 0.00 | 0.00 | 0.00 | 18 | 1013.4 |
| 20260506230012 | 85 | 189 | 1.0 | 6.0 | 0.00 | 0.00 | 0.00 | 19 | 1013.4 |
| 20260506225504 | 86 | 250 | 2.0 | 7.0 | 0.00 | 0.00 | 0.00 | 19 | 1013.4 |
| 20260506225005 | 85 | 238 | 3.0 | 7.0 | 0.00 | 0.00 | 0.00 | 20 | 1013.5 |
| 20260506224514 | 85 | 240 | 3.0 | 6.0 | 0.00 | 0.00 | 0.00 | 19 | 1013.6 |
| 20260506224007 | 85 | 236 | 2.0 | 7.0 | 0.00 | 0.00 | 0.00 | 20 | 1013.6 |
| 20260506223511 | 85 | 234 | 2.0 | 7.0 | 0.00 | 0.00 | 0.00 | 19 | 1013.7 |
| 20260506223020 | 85 | 278 | 2.0 | 5.0 | 0.00 | 0.00 | 0.00 | 19 | 1013.7 |
| 20260506222509 | 86 | 223 | 1.0 | 10.0 | 0.00 | 0.00 | 0.00 | 19 | 1013.8 |
| 20260506222015 | 85 | 288 | 2.0 | 10.0 | 0.00 | 0.00 | 0.00 | 19 | 1013.8 |
| 20260506221522 | 85 | 244 | 1.0 | 4.0 | 0.00 | 0.00 | 0.00 | 19 | 1013.9 |
| 20260506221007 | 85 | 257 | 2.0 | 4.0 | 0.00 | 0.00 | 0.00 | 20 | 1014.0 |
| 20260506220510 | 84 | 200 | 1.0 | 4.0 | 0.00 | 0.00 | 0.00 | 20 | 1014.0 |
| 20260506220030 | 84 | 262 | 1.0 | 6.0 | 0.00 | 0.00 | 0.00 | 21 | 1014.1 |
| 20260506215511 | 84 | 238 | 1.0 | 6.0 | 0.00 | 0.00 | 0.00 | 20 | 1014.2 |
| 20260506215013 | 84 | 212 | 1.0 | 6.0 | 0.00 | 0.00 | 0.00 | 20 | 1014.3 |
| 20260506214511 | 84 | 261 | 1.0 | 6.0 | 0.00 | 0.00 | 0.00 | 20 | 1014.3 |
| 20260506214006 | 83 | 318 | 2.0 | 7.0 | 0.00 | 0.00 | 0.00 | 20 | 1014.4 |
| 20260506213511 | 83 | 276 | 4.0 | 7.0 | 0.00 | 0.00 | 0.00 | 20 | 1014.5 |
| 20260506213015 | 84 | 277 | 2.0 | 6.0 | 0.00 | 0.00 | 0.00 | 20 | 1014.6 |
| 20260506212509 | 84 | 124 | 2.0 | 5.0 | 0.00 | 0.00 | 0.00 | 20 | 1014.7 |
| 20260506212013 | 83 | 257 | 1.0 | 5.0 | 0.00 | 0.00 | 0.00 | 20 | 1014.9 |
| 20260506211524 | 84 | 186 | 2.0 | 5.0 | 0.00 | 0.00 | 0.00 | 20 | 1014.9 |
| 20260506211010 | 84 | 307 | 0.0 | 5.0 | 0.00 | 0.00 | 0.00 | 21 | 1015.0 |
| 20260506210509 | 83 | 307 | 1.0 | 7.0 | 0.00 | 0.00 | 0.00 | 20 | 1015.0 |
| 20260506210032 | 83 | 148 | 2.0 | 7.0 | 0.00 | 0.00 | 0.00 | 21 | 1015.1 |
| 20260506205511 | 83 | 256 | 2.0 | 9.0 | 0.00 | 0.00 | 0.00 | 21 | 1015.2 |
| 20260506205003 | 83 | 262 | 3.0 | 9.0 | 0.00 | 0.00 | 0.00 | 21 | 1015.3 |
| 20260506204507 | 84 | 255 | 0.0 | 5.0 | 0.00 | 0.00 | 0.00 | 20 | 1015.4 |
| 20260506204006 | 83 | 162 | 2.0 | 5.0 | 0.00 | 0.00 | 0.00 | 21 | 1015.4 |
| 20260506203511 | 83 | 200 | 1.0 | 6.0 | 0.00 | 0.00 | 0.00 | 20 | 1015.5 |
| 20260506203023 | 82 | 182 | 1.0 | 6.0 | 0.00 | 0.00 | 0.00 | 22 | 1015.6 |
| 20260506202504 | 83 | 256 | 1.0 | 3.0 | 0.00 | 0.00 | 0.00 | 21 | 1015.6 |
| 20260506202009 | 83 | 110 | 1.0 | 6.0 | 0.00 | 0.00 | 0.00 | 20 | 1015.6 |
| 20260506201518 | 81 | 272 | 2.0 | 6.0 | 0.00 | 0.00 | 0.00 | 22 | 1015.6 |
| 20260506201008 | 81 | 233 | 2.0 | 8.0 | 0.00 | 0.00 | 0.00 | 22 | 1015.7 |
| 20260506200508 | 81 | 247 | 2.0 | 8.0 | 0.00 | 0.00 | 0.00 | 22 | 1015.7 |
| 20260506200022 | 82 | 256 | 2.0 | 5.0 | 0.00 | 0.00 | 0.00 | 22 | 1015.8 |
| 20260506195509 | 82 | 316 | 2.0 | 5.0 | 0.00 | 0.00 | 0.00 | 22 | 1015.8 |
| 20260506195010 | 82 | 257 | 0.0 | 5.0 | 0.00 | 0.00 | 0.00 | 22 | 1015.9 |
| 20260506194524 | 82 | 229 | 1.0 | 4.0 | 0.00 | 0.00 | 0.00 | 22 | 1015.9 |
| 20260506194002 | 81 | 198 | 0.0 | 3.0 | 0.00 | 0.00 | 0.00 | 22 | 1015.9 |
| 20260506193503 | 80 | 167 | 0.0 | 6.0 | 0.00 | 0.00 | 0.00 | 23 | 1016.0 |
| 20260506193012 | 80 | 272 | 2.0 | 6.0 | 0.00 | 0.00 | 0.00 | 23 | 1016.1 |
| 20260506192507 | 80 | 281 | 1.0 | 5.0 | 0.00 | 0.00 | 0.00 | 23 | 1016.0 |
| 20260506192008 | 80 | 248 | 2.0 | 6.0 | 0.00 | 0.00 | 0.00 | 23 | 1016.1 |
| 20260506191515 | 79 | 252 | 2.0 | 6.0 | 0.00 | 0.00 | 0.00 | 23 | 1016.1 |
| 20260506191005 | 80 | 228 | 2.0 | 5.0 | 0.00 | 0.00 | 0.00 | 23 | 1016.2 |
| 20260506190505 | 80 | 262 | 1.0 | 5.0 | 0.00 | 0.00 | 0.00 | 24 | 1016.3 |
| 20260506190019 | 79 | 136 | 0.0 | 5.0 | 0.00 | 0.00 | 0.00 | 24 | 1016.3 |
| 20260506185510 | 80 | 258 | 1.0 | 14.0 | 0.00 | 0.00 | 0.00 | 24 | 1016.4 |
| 20260506185007 | 80 | 183 | 2.0 | 14.0 | 0.00 | 0.00 | 0.00 | 24 | 1016.4 |
| 20260506184523 | 81 | 185 | 0.0 | 2.0 | 0.00 | 0.00 | 0.00 | 24 | 1016.5 |
| 20260506184008 | 80 | 5 | 0.0 | 4.0 | 0.00 | 0.00 | 0.00 | 24 | 1016.5 |
| 20260506183509 | 78 | 208 | 0.0 | 4.0 | 0.00 | 0.00 | 0.00 | 25 | 1016.6 |
| 20260506183026 | 77 | 232 | 1.0 | 7.0 | 0.00 | 0.00 | 0.00 | 27 | 1016.7 |
| 20260506182502 | 77 | 328 | 2.0 | 7.0 | 0.00 | 0.00 | 0.00 | 26 | 1016.8 |
| 20260506182007 | 78 | 292 | 1.0 | 6.0 | 0.00 | 0.00 | 0.00 | 26 | 1016.8 |
| 20260506181519 | 78 | 242 | 3.0 | 6.0 | 0.00 | 0.00 | 0.00 | 26 | 1016.9 |
| 20260506181007 | 78 | 114 | 1.0 | 4.0 | 0.00 | 0.00 | 0.00 | 27 | 1017.0 |
| 20260506180505 | 77 | 262 | 1.0 | 4.0 | 0.00 | 0.00 | 0.00 | 28 | 1017.0 |
| 20260506180016 | 76 | 238 | 1.0 | 3.0 | 0.00 | 0.00 | 0.00 | 28 | 1016.9 |
| 20260506175509 | 76 | 216 | 0.0 | 7.0 | 0.00 | 0.00 | 0.00 | 28 | 1017.0 |
| 20260506175008 | 75 | 234 | 1.0 | 7.0 | 0.00 | 0.00 | 0.00 | 29 | 1017.1 |
| 20260506174517 | 76 | 250 | 1.0 | 3.0 | 0.00 | 0.00 | 0.00 | 29 | 1017.1 |
| 20260506174007 | 75 | 98 | 0.0 | 5.0 | 0.00 | 0.00 | 0.00 | 29 | 1017.1 |
| 20260506173507 | 74 | 227 | 1.0 | 7.0 | 0.00 | 0.00 | 0.00 | 29 | 1017.1 |
| 20260506173023 | 74 | 255 | 1.0 | 7.0 | 0.00 | 0.00 | 0.00 | 30 | 1017.1 |
| 20260506172507 | 74 | 256 | 3.0 | 7.0 | 0.00 | 0.00 | 0.00 | 30 | 1017.1 |